Regional Weather Roundup
Issued by NWS

Home | Current Version | Previous Version | Text Only | Print | Product List | Glossary On
Versions: 1 2 3 4 5 6 7 8 9 10 11 12 13 14 15 16 17 18 19 20 21 22 23 24 25 26 27 28 29 30 31 32 33 34 35 36 37 38 39 40 41 42 43 44 45 46 47 48 49 50
000
ASUS43 KLOT 111012
RWRIL

ILLINOIS REGIONAL WEATHER ROUNDUP
NATIONAL WEATHER SERVICE CHICAGO/ROMEOVILLE IL
400 AM CST SUN DEC 11 2016

NOTE: "FAIR" INDICATES FEW OR NO CLOUDS BELOW 12,000 FEET WITH NO
SIGNIFICANT WEATHER AND/OR OBSTRUCTIONS TO VISIBILITY.

* THESE STATIONS ARE NOT UNDER NWS QUALITY CONTROL. THEY ALSO MAY NOT
  REPORT WEATHER SUCH AS PRECIPITATION OR FOG.

ILZ001-002-007-009-015-016-024-111100-
NORTHWEST ILLINOIS

CITY           SKY/WX    TMP DP  RH WIND       PRES   REMARKS
MOLINE         CLOUDY    28  22  78 E9        30.02F WCI  19
STERLING*      CLOUDY    26  23  88 SE10      30.08F WCI  16
SAVANNA*       LGT SNOW  26  23  87 SE13      30.05F WCI  15
$$

ILZ003-004-008-010-011-017-018-111100-
NORTH CENTRAL ILLINOIS

CITY           SKY/WX    TMP DP  RH WIND       PRES   REMARKS
ROCKFORD       LGT SNOW  24  21  88 SE13      30.11F VSB 3/4 WCI  12
FREEPORT*      LGT SNOW  24  22  93 SE15      30.09F WCI  11
ROCHELLE*      LGT SNOW  25  23  91 SE18      30.09F WCI  11
DE KALB*       LGT SNOW  24  22  93 SE12      30.11F WCI  13
$$

ILZ005-006-012>014-019>023-111100-
NORTHEAST ILLINOIS

CITY           SKY/WX    TMP DP  RH WIND       PRES   REMARKS
CHICAGO-OHARE  LGT SNOW  25  22  88 SE10      30.15F FOG     WCI  15
CHICAGO-MIDWAY FLURRIES  26  21  81 SE9       30.16F WCI  17
AURORA         LGT SNOW  26  22  84 SE12      30.13F FOG     WCI  16
LANSING*       CLOUDY    25  24  94 SE8       30.18F WCI  17
JOLIET*        CLOUDY    27  25  89 SE10      30.15F WCI  18
WAUKEGAN       LGT SNOW  26  23  88 S7        30.14F FOG     WCI  18
DUPAGE AIRPORT LGT SNOW  25  21  85 SE12      30.13F FOG     WCI  14
KANKAKEE*      CLOUDY    27  23  87 SE10      30.16F WCI  17
WHEELING       LGT SNOW  25  22  88 SE7       30.17F FOG     WCI  17
MORRIS*        CLOUDY    27  23  86 SE10      30.13F WCI  17
ROMEOVILLE*    CLOUDY    26  25  98 SE9       30.14F WCI  16
NORTHERLY ISL    N/A     27  26  96 SE15        N/A  WCI  15
$$

LMZ740>746-111100-
SOUTHERN LAKE MICHIGAN

STATION/POSITION SKY/WX   TEMP    WIND        PRES    VSBY  WAVE
                          AIR SEA DIR/SP/G                  HT/PER
                          (F)     (DEG/KT/KT) (MB)    (MI)  (FT/S)
BURNHAM HARBOR             27     160/ 15/ 17   N/A
CALUMET HARBOR             26     150/  8/ 16 1021.2F
BURNS HARBOR               25     140/ 12/ 17 1023.0F
$$

ILZ025>027-034>036-040-047-049-050-058-095>099-111100-
WEST-CENTRAL ILLINOIS

CITY           SKY/WX    TMP DP  RH WIND       PRES   REMARKS
QUINCY         CLOUDY    36  18  48 S12       29.98F WCI  28
GALESBURG*     CLOUDY    30  24  77 SE7       30.01F WCI  23
MACOMB*        CLOUDY    32  22  64 S12       30.03F WCI  23
JACKSONVILLE*  CLOUDY    35  19  52 S10       30.04F WCI  27
PITTSFIELD*    CLOUDY    36  20  53 SE9       30.01F WCI  29
$$

ILZ028>032-037-038-041>044-048-051>054-059>061-111100-
CENTRAL ILLINOIS

CITY           SKY/WX    TMP DP  RH WIND       PRES   REMARKS
PONTIAC        CLOUDY    29  25  86 SE15      30.12F WCI  18
BLOOMINGTON    CLOUDY    29  23  78 SE10      30.09F WCI  20
DECATUR        CLOUDY    33  19  56 S17G25    30.09F WCI  22
PEORIA         CLOUDY    31  23  72 SE8       30.06F WCI  23
LACON*         CLOUDY    29  24  81 S6        30.08F WCI  23
LINCOLN*       CLOUDY    34  22  62 S8        30.09F WCI  27
SPRINGFIELD    CLOUDY    35  21  56 S13       30.07F WCI  26
TAYLORVILLE    CLOUDY    34  20  55 S9G16     30.08F WCI  27
$$

ILZ033-039-045-046-055>057-062-063-111100-
EAST-CENTRAL ILLINOIS

CITY           SKY/WX    TMP DP  RH WIND       PRES   REMARKS
CHAMPAIGN      CLOUDY    31  21  66 SE13      30.12F WCI  21
RANTOUL*       CLOUDY    31  24  75 S14       30.13F WCI  20
MATTOON        CLOUDY    32  19  58 S16       30.13F WCI  21
PARIS*         CLOUDY    31  22  68 SE12      30.17F WCI  22
$$

ILZ079-100>102-111100-
SOUTHWEST ILLINOIS

CITY           SKY/WX    TMP DP  RH WIND       PRES   REMARKS
ALTON          CLOUDY    37  19  46 SE13      30.06F WCI  29
BELLEVILLE     CLOUDY    38  20  46 S13       30.07F WCI  31
CAHOKIA*       CLOUDY    38  19  46 S10       30.06F WCI  31
SPARTA*        CLOUDY    38  19  45 S20G25    30.10F WCI  28
$$

ILZ064>066-069>071-074>076-080>082-084>086-088>090-092>094-111100-
SOUTH-CENTRAL ILLINOIS

CITY           SKY/WX    TMP DP  RH WIND       PRES   REMARKS
CARBONDALE     CLOUDY    39  18  42 S13       30.15F WCI  31
CAIRO*         CLOUDY    38  21  49 S12       30.18F WCI  31
EFFINGHAM*     CLOUDY    34  22  63 SE9G16    30.16F WCI  26
MARION         CLOUDY    39  19  45 S16       30.16F WCI  30
CENTRALIA*     CLOUDY    38  20  47 S12       30.12F WCI  31
SALEM*         CLOUDY    37  19  46 S6        30.13F WCI  33
METROPOLIS*    CLOUDY    39  19  44 S6        30.20F
$$

ILZ067-068-072-073-078-083-087-091-111100-
SOUTHEAST ILLINOIS

CITY           SKY/WX    TMP DP  RH WIND       PRES   REMARKS
LAWRENCEVILLE  CLOUDY    33  21  61 SE14      30.20F WCI  23
FLORA*         CLOUDY    36  23  59 SE12      30.16F WCI  27
FAIRFIELD*     CLOUDY    35  22  61 SE5       30.16F WCI  31
HARRISBURG*    CLOUDY    37  23  57 S8        30.19F WCI  31
ROBINSON*      CLOUDY    32  20  62 SE14      30.20F WCI  22
CARMI*         CLOUDY    34  24  67 SE9       30.19F WCI  26
$$

ABBREVIATIONS USED IN REMARKS
   TC - TEMPERATURE IN CELSIUS
  WCI - WIND CHILL INDEX
   HX - HEAT INDEX
  VSB - VISIBILITY
$$




USA.gov is the U.S. government's official web portal to all federal, state and local government web resources and services.